This is the latest recevied weather packets stored in our database for station/object EA1FBN. If no packets are shown the sender has not sent any weather packets the latest 10 day(s).
| Time | Temp. | Humidity | Pressure | Rain* | Wind** | Luminosity | Snow |
|---|---|---|---|---|---|---|---|
| 1777508617 | 10.56° C | 67% | 1013.6 hPa | 0 mm | - | - | - |
| 1777508317 | 10.56° C | 66% | 1013.5 hPa | 0 mm | - | - | - |
| 1777508017 | 10.56° C | 65% | 1013.4 hPa | 0 mm | - | - | - |
| 1777507417 | 10.56° C | 63% | 1013.4 hPa | 0 mm | - | - | - |
| 1777507117 | 10.56° C | 63% | 1013.5 hPa | 0 mm | - | - | - |
| 1777506517 | 10.56° C | 63% | 1013.4 hPa | 0 mm | - | - | - |
| 1777505917 | 10.56° C | 61% | 1013.3 hPa | 0 mm | - | - | - |
| 1777505617 | 10.56° C | 60% | 1013.2 hPa | 0 mm | - | - | - |
| 1777502917 | 10.56° C | 52% | 1012.8 hPa | 0 mm | - | - | - |
| 1777502317 | 10.56° C | 52% | 1013 hPa | 0 mm | - | - | - |
| 1777502017 | 10.56° C | 53% | 1012.8 hPa | 0 mm | - | - | - |
| 1777501717 | 10.56° C | 53% | 1012.7 hPa | 0 mm | - | - | - |
| 1777501417 | 10.56° C | 53% | 1012.6 hPa | 0 mm | - | - | - |
| 1777501117 | 10.56° C | 53% | 1012.5 hPa | 0 mm | - | - | - |
| 1777500817 | 10.56° C | 53% | 1012.3 hPa | 0 mm | - | - | - |
| 1777500517 | 10.56° C | 54% | 1012.1 hPa | 0 mm | - | - | - |
| 1777500217 | 10.56° C | 54% | 1012.1 hPa | 0 mm | - | - | - |
| 1777499917 | 10.56° C | 54% | 1012 hPa | 0 mm | - | - | - |
| 1777499617 | 10.56° C | 54% | 1012.1 hPa | 0 mm | - | - | - |
| 1777499317 | 10.56° C | 55% | 1012 hPa | 0 mm | - | - | - |
| 1777498717 | 10.56° C | 56% | 1011.8 hPa | 0 mm | - | - | - |
| 1777498117 | 10.56° C | 58% | 1011.6 hPa | 0 mm | - | - | - |
| 1777497817 | 10.56° C | 59% | 1011.1 hPa | 0 mm | - | - | - |
| 1777496917 | 11.11° C | 61% | 1011.4 hPa | 0 mm | - | - | - |
| 1777494817 | 11.11° C | 65% | 1011.3 hPa | 0 mm | - | - | - |
* Rain latest hour (hover to see other rain measurements)
** Current wind speed in m/s (hover to see current wind gust speed)